Flag for Ireland Weather past 2 weeks in Waterford, Ireland

Now
52 °F

Partly sunny.


Feels Like: 46 °F
Forecast: 51 / 53 °F
Wind: 20 mph from Southwest

Location: Cork Airport

Current Time: Dec 22, 2014 at 11:29:09 AM

Latest Report: Dec 22, 2014 at 11:00 AM


Visibility: N/A

Pressure: 30.04 "Hg

Humidity: 94%

Dew point: 50 °F

Location of WaterfordLocation

Historic Weather in Waterford — Graph

°F

Waterford temperature yesterday

Maximum temperature yesterday: 54 °F (at 7:30 PM)
Minimum temperature yesterday: 45 °F (at 12:00 AM)
Average temperature yesterday: 50 °F

Past Weeks' High & Low Weather Summary

 TemperatureHumidityPressure
High54 °F (Dec 16, 7:30 PM)100% (Dec 8, 5:00 AM)30.45 "Hg (Dec 8, 5:00 AM)
Low34 °F (Dec 12, 6:30 AM)61% (Dec 7, 1:00 PM)29.30 "Hg (Dec 12, 1:00 AM)
Average44 °F91%29.96 "Hg
* Reported Dec 7 10:00 AM — Dec 22 10:30 AM, Waterford, Weather by CustomWeather, © 2014

Note: Actual official high and low records may vary slightly from our data, if they occured in-between our weather recording intervals... More about our weather records

Advertising

Waterford weather history for previous 24 hours

 ConditionsComfort  
Time TempWeatherWind HumidityBarometerVisibility
10:30 AM
Dec 22
52 °FPartly sunny.22 mph94%30.01 "HgN/A
10:00 AM52 °FBroken clouds.21 mph94%30.01 "HgN/A
9:30 AM52 °FPartly sunny.22 mph94%30.01 "HgN/A
9:00 AM52 °FPartly sunny.24 mph94%30.01 "HgN/A
8:30 AM52 °FLight rain. Passing clouds.22 mph100%30.01 "Hg5 mi
8:00 AM52 °FLight rain. Passing clouds.23 mph100%30.01 "HgN/A
7:30 AM52 °FPassing clouds.23 mph94%30.01 "Hg4 mi
7:00 AM52 °FPassing clouds.23 mph100%30.01 "Hg4 mi
6:30 AM52 °FPassing clouds.20 mph94%30.01 "Hg3 mi
6:00 AM52 °FPassing clouds.21 mph94%30.01 "Hg4 mi
5:30 AM52 °FPassing clouds.21 mph94%30.01 "HgN/A
5:00 AM52 °FPassing clouds.24 mph94%30.01 "HgN/A
4:30 AM52 °FPassing clouds.22 mph94%30.01 "HgN/A
3:30 AM52 °FPassing clouds.24 mph94%30.04 "HgN/A
3:00 AM52 °FPassing clouds.20 mph94%30.04 "HgN/A
2:30 AM52 °FPassing clouds.18 mph94%30.04 "HgN/A
2:00 AM52 °FPassing clouds.23 mph94%30.04 "HgN/A
1:30 AM52 °FPassing clouds.22 mph94%30.07 "HgN/A
1:00 AM52 °FPassing clouds.22 mph94%30.07 "HgN/A
12:30 AM52 °FPassing clouds.22 mph94%30.07 "HgN/A
12:00 AM52 °FPassing clouds.24 mph94%30.07 "HgN/A
11:30 PM
Dec 21
52 °FPartly cloudy.23 mph94%30.09 "HgN/A
11:00 PM52 °FPassing clouds.21 mph100%30.09 "HgN/A
10:30 PM52 °FPassing clouds.22 mph100%30.09 "HgN/A
9:30 PM52 °FPassing clouds.20 mph100%30.09 "HgN/A
9:00 PM52 °FPassing clouds.22 mph100%30.12 "HgN/A
8:30 PM54 °FPassing clouds.22 mph94%30.12 "HgN/A
8:00 PM54 °FPassing clouds.23 mph94%30.12 "HgN/A
7:30 PM54 °FPassing clouds.18 mph94%30.12 "HgN/A
7:00 PM52 °FPassing clouds.18 mph100%30.12 "HgN/A
6:30 PM52 °FPassing clouds.21 mph100%30.12 "HgN/A
6:00 PM52 °FPassing clouds.24 mph100%30.12 "HgN/A
5:30 PM52 °FPassing clouds.21 mph100%30.12 "HgN/A
5:00 PM52 °FPassing clouds.22 mph100%30.12 "HgN/A
4:30 PM52 °FPassing clouds.16 mph100%30.15 "HgN/A
4:00 PM52 °FPartly sunny.16 mph100%30.12 "HgN/A
3:30 PM52 °FDrizzle. Partly sunny.21 mph100%30.12 "Hg5 mi
3:00 PM52 °FDrizzle. Broken clouds.23 mph100%30.12 "HgN/A
2:30 PM52 °FPartly sunny.23 mph100%30.15 "HgN/A
2:00 PM52 °FPartly sunny.13 mph100%30.15 "HgN/A
1:30 PM52 °FBroken clouds.13 mph100%30.18 "HgN/A
1:00 PM52 °FDrizzle. Broken clouds.20 mph100%30.18 "Hg4 mi
12:30 PM52 °FBroken clouds.20 mph100%30.18 "HgN/A
12:00 PM52 °FDrizzle. Broken clouds.16 mph100%30.21 "Hg4 mi
11:30 AM52 °FDrizzle. Broken clouds.16 mph100%30.21 "HgN/A
11:00 AM52 °FDrizzle. Partly sunny.12 mph100%30.24 "Hg2 mi
Weather by CustomWeather, © 2014

See weather overviewHow to use our weather pages